Member area
Imprimable
Wissant, 07-08/09/2019, FRA - Trail de la Côte d'Opale
List of reports > 42km - Result
Search: Page: [1]
176 Entries
 
Complains are not accepted anymore. Results are final.
PlaceNrLicenceNameAgeNATTeamTimeTkmMoy.ScrCity
1.1415SOHIER Sylvain40FRACOURIR À GRAVELINES3:21:574:49 12.483
2.1167MEUNIER Fabien40BEL3:47:165:25 11.0911
3.1677PUTMAN Nicolas41FRA3:50:195:30 10.9414
4.1635BEYLS Aymeric43FRA3:50:535:30 10.9115
5.1328CHARPENTIER Sebastien42FRATEAM CHEETAH3:52:105:32 10.8616
6.1658GOMÉRIEUX Éric46FRA3:55:125:36 10.7121
7.15271749203BAILLY Nicolas45FRAC.A.FOURMIES3:55:165:37 10.7122
8.16721585282LETERME Eric40FRA3:58:515:42 10.5525
9.1497DANEL Maxime41FRAATHLETIC CLUB MARCQUOIS3:59:205:42 10.5326
10.1221MANCHE David46BELTEMPLEUVE4:00:365:44 10.4728
11.1368BOURGAIN Guillaume42FRA4:09:435:57 10.0937
12.1140MISSOUL Frank41BELFRANK MISSOUL4:11:386:00 10.0142
13.16462072061DANVERS Benoit43FRALMC4:14:086:04 9.9248
14.1309MESOTTEN Dirk49BEL4:14:246:04 9.9149
15.1410DECHAMPS Marc47FRA4:15:466:06 9.8554
16.1512348633SIMON Olivier48FRATHIAIS AC4:16:176:07 9.8356
17.1479DELACRE Sylvain47FRACALAIS TERRE OPALE TRAIL4:18:366:10 9.7561
18.1385ROUSSEAU David46BELAXA TEAM4:21:146:14 9.6564
19.1621DOLLET Sebastien43FRAKALENJI4:21:516:15 9.6265
20.1152DELAMAERE Julien40FRA4:23:216:17 9.5767
21.1598MANN David42FRA4:23:316:17 9.5669
22.1355LEQUEUX Sebastien42FRA4:23:406:17 9.5671
23.12061879092D HAUDT Larry44FRAOAH4:25:496:20 9.4878
24.1094VROLANT Cedric41FRA4:27:376:23 9.4282
25.1633GRELIER Patrice44FRA4:28:566:25 9.3792
26.1314MARCOURT Geoffray40FRA4:29:326:26 9.3596
27.1657HAUTION Améris43FRA4:29:376:26 9.3597
28.1507GUILLERME Olivier48FRA4:33:366:31 9.21112
29.1440FLAHAUT Gregory41FRA4:35:146:34 9.16115
30.1439WALLYN Grégory47FRAGRÉGORY WALLYN4:36:506:36 9.10123
31.1511GIVRY Vincent47FRAX2POP4:37:206:37 9.09124
32.1394DE GREGORIO Fabrice46FRATRIATHLIÈGE4:37:306:37 9.08125
33.1601PAYEN Maxime41FRA4:38:156:38 9.06127
34.1259REGNIER Frédéric48FRA4:40:226:41 8.99134
35.1602DUBOIS Pascal47FRA4:41:306:43 8.95139
36.1225FRANSSENS Francois40BELSWIFT4:41:556:43 8.94143
37.1555RIFFAUD Bertrand42FRA4:43:376:46 8.89149
38.1685DE LEMPDES Sylvain47FRA4:43:436:46 8.88151
39.1163BAUDY Jerome45FRA4:44:596:48 8.84153
40.1489LABOUREUR Ludovic45FRACONTINENTAL4:46:206:50 8.80156
41.1413LEPRETRE Cédric45FRAAS ADVENTURE RUNNING TEAM4:47:186:51 8.77158
42.1532COLLIAS Arnaud42FRACOURIR À CORPS NUDS4:48:556:53 8.72165
43.1058GRAUWIN Stephane42FRAUN MÊME REGARD POUR TOUS4:50:246:55 8.68168
44.1041FURMANKIEWICZ Luc49FRA4:50:476:56 8.67169
45.1581MOYON Yoann44FRA4:52:026:58 8.63176
46.1478CHEVALIER Mathias40FRA4:52:136:58 8.62177
47.15761270612AYRAL Thomas40FRAASPTT LILLE4:52:406:59 8.61178
48.13922068677RICHARD Réginald46FRACLLL ARMENTIERES4:52:556:59 8.60179
49.10451863257COCHEZ Stephane40FRAJOGGING CLUB BILLY BERCLA4:53:477:00 8.58182
50.1083VANUXEM Gregory48FRA4:54:377:01 8.55185
51.1580TERNY Enrique44FRA4:55:247:02 8.53187
52.1594BOEDT Henri-François47BELTRILUX4:56:427:04 8.49193
53.1004KINZIGER Arnaud41FRAFOREST RUNNING4:57:017:05 8.48194
54.1112WIART Jean_francois45FRA4:57:127:05 8.48197
55.1443LEFEBVRE Ronald49BELRCE4:57:467:06 8.46203
56.1378LENEN Olivier48FRA4:58:267:07 8.44205
57.1131ARTISIEN Vincent42BEL5:01:057:11 8.37215
58.1651HERNANDEZ MONTER Victor40MEXRARAMURIS5:01:277:11 8.36217
59.1407STRACHE Jonathan42FRA5:02:097:12 8.34222
60.1044PLOUVIEZ Vincent46FRATC LIÉVIN5:02:387:13 8.33223
61.1119MIGRENNE Ludovic49FRA5:03:027:13 8.32227
62.1326VANPEENE Xavier41FRA5:03:467:14 8.30232
63.1302DELANGUE Nicolas46FRALILLE RUNNING TEAM5:04:377:16 8.27236
64.1337BOGAERT Christophe47FRA5:04:377:16 8.27237
65.1348LASSON Emmanuel44FRA5:04:387:16 8.27238
66.1480BUSCHIAZZO Jean-Baptiste40FRA5:05:447:17 8.24244
67.1575RABU Sebastien45FRA5:05:447:17 8.24245
68.1213BAUDHUIN Guillaume42FRA5:06:347:18 8.22247
69.1130THIRIET Pascal41FRA5:06:427:19 8.22249
70.1121MEUROT Manuel45FRA5:06:437:19 8.22251
71.1253DERAM Tony42FRA5:08:187:21 8.17254
72.1353DELAMARE Nicolas41FRARUNLIFE765:08:477:22 8.16256
73.1322DOROT Cédric40FRAPARIS UNIVERSITÉ CLUB5:09:167:22 8.15258
74.1290AUBRY Bruno45FRA5:09:417:23 8.14260
75.1431RICHARD Vincent45FRARICHARD VINCENT5:10:047:23 8.13262
76.1031LEDEZ Jean-Michel40FRA5:10:337:24 8.11264
77.1370CODRON Arnaud48FRA5:11:397:26 8.09267
78.1215BLOMME Aymeric41FRA5:12:107:26 8.07271
79.1505MATHOT Sébastien41BELJCHSH5:12:267:27 8.07273
80.1285DAMMAREZ François45FRA5:12:497:27 8.06279
81.1060LEMAIRE Florent41FRA5:12:577:28 8.05280
82.1565PICQUE Sebastien40FRASEBASTIEN PICQUE5:14:197:30 8.02285
83.1313FREMAUX Guillaume43FRA5:15:287:31 7.99286
84.1185NIEUWLAND Jean-Francois43BELLES CHAPELIERS FOUS5:15:327:31 7.99287
85.1155WACQUIER Arnaud41BEL5:15:327:31 7.99288
86.1490COTELLE Jerome46FRAGRAVITY5:15:447:32 7.98290
87.1129MAES Sebastien48FRA5:16:007:32 7.98293
88.1350BAILLY Alban45FRA5:16:307:33 7.96294
89.1374THILL Didier45BELWORLDLINE BELGIUM5:17:327:34 7.94299
90.12262011324CAILLIERET Stephane47FRAJOGGING CLUB BILLY BERCLA5:17:507:35 7.93301
91.1233CAMPAGNE Frédéric45FRA5:17:517:35 7.93302
92.1347GOURDAIN Sebastien43FRA5:18:437:36 7.91306
93.1331PIERARD Jérôme49FRA5:18:547:36 7.90308
94.1419BRIOUDE Frédéric41FRA5:21:047:39 7.85318
95.1247VAN GRUNDERBEECK Nicolas43FRA5:22:057:41 7.82319
96.1517FORTET Franck49FRA5:22:207:41 7.82321
97.1317LESUEUR Alexandre46FRA5:23:027:42 7.80324
98.1471DACQUET Sébastien41FRA5:23:047:42 7.80325
99.1574CAUDRELIER Gregory43FRAGREGORY CAUDRELIER5:24:357:44 7.76333
100.1530CAUDRELIER Jérémie41FRASECTION TRAIL C.A.FOURMIE5:24:357:44 7.76334
101.1408VAN DE KERKHOVE Robert46NÉE5:24:547:45 7.76335
102.1547DUPRE Cedric41FRA5:25:087:45 7.75337
103.1250DEBAVAY Jean-Christophe47BELBETRAIL5:25:167:45 7.75338
104.1136BOI Robbie40BEL5:25:177:45 7.75340
105.1148BUSNEL Marc46FRA5:25:257:45 7.74341
106.1072HERVE Jerome47FRACOURIR A BERSEE5:25:317:46 7.74343
107.1679DUSSAUCY Laurent46FRA5:25:357:46 7.74344
108.1430DELAUNAY Sylvain45FRALIGNE BLEUE5:26:347:47 7.72349
109.1228VANBERTEN Pascal41FRA5:28:227:50 7.67353
110.1562JACOB Christophe45FRA5:28:287:50 7.67354
111.1628HENIN Thierry48FRA5:28:557:50 7.66359
112.1488DESMARESCAUX Rémi40FRA5:29:267:51 7.65362
113.1400BEIRNAERT François43FRA5:30:367:53 7.62364
114.1118450426BROSSARD Herve46FRALMA 725:31:597:55 7.59370
115.1149PREUX Bruno45FRARUN SANTÉ LEERS5:34:557:59 7.52379
116.1095DECLERCQ Yannick45BELLES CHAPELIERS FOUS5:35:278:00 7.51383
117.1133KOWALSKI Gérald45FRA5:35:478:00 7.51384
118.1455DE BAILLIENCOURT Christian47FRA5:35:508:00 7.50385
119.1222DUMENIL Laurent47FRA5:36:108:01 7.50386
120.1161VERHAEGHE Samuel44FRALES AMIS FORMIDABLES5:36:328:01 7.49387
121.1666TRAVAILLOT Alexandre47FRA5:36:328:01 7.49388
122.1077PERRAULT Stephane48FRA5:37:048:02 7.48390
123.1442CARON Olivier43FRAOLIVIER CARON5:40:438:07 7.40398
124.1632MORTIER Cedric42FRA5:46:558:16 7.26409
125.1629MARCQ Nicolas46FRANICOLAS MARCQ5:47:518:17 7.24410
126.1449MEUNIER LAURENT Meunier48FRA5:50:088:21 7.20419
127.1436FONTAINE Grégory45FRA5:51:288:23 7.17428
128.1535BEAUFAY Angelo40BEL5:52:088:24 7.16430
129.1061HENE Olivier47BEL5:52:248:24 7.15431
130.1330DEWILDE Freddy46FRAPAC5:53:078:25 7.14435
131.1069GHEYSENS Olivier43BELRUN4FUN WEMMEL5:53:078:25 7.14436
132.1264GEOFFROY Janssens46BEL5:55:178:28 7.09442
133.1384TEXIER Jean-Michel43FRA5:56:118:29 7.08446
134.1047FRANÇOIS André46FRA5:56:148:29 7.07447
135.1278MEURET Philippe42BELBECLERS5:57:348:31 7.05449
136.1636EMPISSE Nicolas44FRALYS CT5:58:158:32 7.03452
137.1239LEBRAT Julien45FRAPÉTOTES6:00:378:36 6.99455
138.1545DUTERIEZ Stéphane42FRA6:02:188:38 6.96458
139.1231ANDRIEUX Charles40FRA6:02:518:39 6.95460
140.1312LAMBLIN Jean Marc44FRABERCK OPALE SUD TRIATHLON6:03:578:40 6.92465
141.1144LOSFELD Renaud45FRA6:04:488:42 6.91467
142.1597STASZEWSKI Frédéric40FRA6:05:168:42 6.90468
143.15032060198MUTNIK Sylvain44FRAJOGGING CLUB BILLY BERCLA6:08:288:47 6.84472
144.1395LESNES Renaud48FRA6:08:388:47 6.84474
145.1067GOOSSENS Benoit43BEL6:09:018:48 6.83478
146.1362LOISON Cedric42FRA6:10:238:50 6.80480
147.1434GRAUX Thierry47FRADELPHINE DAMERVAL6:10:238:50 6.80481
148.1214QUIEF Bertrand48FRA6:10:288:50 6.80482
149.1373CHOIN Xavier47FRA6:16:498:59 6.69487
150.1588RIEM Claude46FRACLAUDE RIEM6:19:149:02 6.65490
151.1585GRILLON Guillaume49FRA6:19:219:02 6.64492
152.1345PASSELEGUE Ludovic42FRA6:21:119:05 6.61495
153.1165POLLART John41BEL6:22:429:07 6.58499
154.1625DE NEVE Alain45FRA6:23:329:08 6.57503
155.1087ABELS Bertrand47FRAFORMYFIT6:23:589:09 6.56504
156.1065BAR Sebastien40FRA6:25:309:11 6.54506
157.1531ROBERT Frédéric42FRADÉCATHLON6:29:029:16 6.48510
158.1297BORDAIS Francois45FRACACAHUÈTES6:35:179:25 6.38515
159.1068BURET Vianney43FRA6:35:459:26 6.37520
160.1654CORDIER Guillaume46FRA6:38:449:30 6.32524
161.1477OUK Thavarak43FRA6:45:449:40 6.21528
162.1232VEXTARD Christophe45FRA6:45:509:40 6.21529
163.1059JUBERT Mickael41FRA6:54:489:53 6.08533
164.1255BOUTELIER David46FRA6:56:259:55 6.05536
165.1271VAN DORPE Thierry43FRA6:56:259:55 6.05537
166.1266CHARTRELLE Christophe48FRA7:11:4410:17 5.84542
167.1251RIDOUX Bruno48FRA7:25:0310:36 5.66545
DSQ1675ANTOINET Stephane48FRA3:12:33
DSQ1204GARCIA Daniel49FRA5:20:57
DNF1235BETTE Guilaume45FRA
DNF1519COUROUBLE Guy-Bernard42FRA
DNF1202DUPONCHEEL Benoit43FRAJC LUINGNE
DNF1325DUQUENOY Tony47FRA
DNF1110HUART David44FRA
DNF1626HUSZAK Nicolas42FRA
DNF1240ROBERT Emmanuel47FRAÇA OUTREAU
DNF: did not finish; DSQ: disqualified; Speed in km/h
Page: [1]